Zurück zum Katalog

CZ-2D DEB

AktivSSO
NORAD 38327·DEBRIS·🇨🇳 China

Gestartet Nov 20, 2011 von Jiuquan Satellite Launch Center

Loading…

Nächste Überflüge (nächste 24 Stunden)

TLE

AktuellSource: Space-Track

Epoche: Sep 14, 2026, 04:39 UTC

1 38327U 11068J   26257.19407495  .00000069  00000-0  69123-4 0  9990
2 38327  98.6858 336.7128 0199133  51.1209 338.2480 13.94461748748681

Verfolge CZ-2D DEB in Echtzeit mit AllMySat

Download on the App Store